Christmas Island, Christmas Island

2:58 AM +07 on June 27, 2017 (GMT +0700)
Christmas Island

Weather History for 96995 - July, 2013

Change the Weather History Date:

Friday, July 5, 2013

  Actual Average Record
Temperature  
Mean Temperature 77 °F -  
Max Temperature 80 °F 77 °F - ()
Min Temperature 74 °F 70 °F - ()
Cooling Degree Days 12    
Growing Degree Days 27 (Base 50)    
Moisture  
Dew Point 71 °F    
Average Humidity 80    
Maximum Humidity 89    
Minimum Humidity 71    
Precipitation  
Precipitation 0.00 in - - ()
Sea Level Pressure  
Sea Level Pressure 29.87 in    
Wind  
Wind Speed 14 mph ()    
Max Wind Speed 18 mph    
Max Gust Speed 31 mph    
Visibility 6.2 miles    
Events Rain    
T = Trace of Precipitation, MM = Missing Value Source: Averaged Metar Reports

Daily Weather History Graph

Daily Weather History Graph

Search for Another Location

Airport or City:

Trip Planner

Search our weather history database for the weather conditions in past years. The results will help you decide how hot, cold, wet, or windy it might be!

Date:

Astronomy

Jul. 05, 2013 Rise Set
Actual Time 6:15 AM +07 5:47 PM +07
Civil Twilight 5:53 AM +07 6:10 PM +07
Nautical Twilight 5:26 AM +07 6:36 PM +07
Astronomical Twilight 5:00 AM +07 7:03 PM +07
Moon 3:36 AM +07 (7/5) 3:28 PM +07 (7/5)
Length of Visible Light 12h 17m
Length of Day
11h 31m
Waning Crescent, 8% of the Moon is Illuminated
Jul 5
Waning Crescent
Jul 8
New
Jul 16
First Quarter
Jul 23
Full
Jul 30
Last Quarter

Hourly Weather History & Observations

Time (+07) Temp. Dew Point Humidity Pressure Visibility Wind Dir Wind Speed Gust Speed Precip Events Conditions
12:00 AM 77 °F 71 °F 77% 29.86 in - ESE 15.0 mph - -   Overcast
12:00 AM 77.0 °F 71.6 °F 83% 29.89 in 6.2 mi ESE 15.0 mph - N/A   Mostly Cloudy
1:00 AM 77 °F 72 °F 82% 29.85 in - East 13.8 mph - -  
1:01 AM 77.0 °F 71.6 °F 83% 29.89 in 6.2 mi East 13.8 mph - N/A   Mostly Cloudy
2:00 AM 77.0 °F 71.6 °F 83% 29.86 in 6.2 mi East 17.3 mph - N/A   Overcast
2:25 AM 77.0 °F 71.6 °F 83% 29.86 in 6.2 mi East 16.1 mph 27.6 mph N/A   Light Drizzle
3:00 AM 76 °F 71 °F 80% 29.81 in - East 16.1 mph - -   Overcast
3:00 AM 77.0 °F 71.6 °F 83% 29.83 in 6.2 mi East 16.1 mph - N/A Rain Light Rain
4:00 AM 77 °F 71 °F 76% 29.80 in - East 16.1 mph - -  
4:00 AM 77.0 °F 71.6 °F 83% 29.83 in 6.2 mi East 16.1 mph - N/A Rain Light Rain Showers
5:03 AM 77.0 °F 71.6 °F 83% 29.83 in 6.2 mi ESE 17.3 mph 28.8 mph N/A   Overcast
5:15 AM 77.0 °F 71.6 °F 83% 29.83 in 6.2 mi ESE 16.1 mph - N/A   Overcast
5:58 AM 77.0 °F 69.8 °F 78% 29.86 in 6.2 mi ESE 17.3 mph - N/A Rain Light Rain Showers
6:00 AM 77 °F 70 °F 74% 29.82 in - ESE 17.3 mph - -   Overcast
6:04 AM 77.0 °F 69.8 °F 78% 29.86 in 6.2 mi East 18.4 mph 31.1 mph N/A   Light Drizzle
7:00 AM 77 °F 72 °F 79% 29.83 in - ESE 16.1 mph - -  
7:00 AM 77.0 °F 71.6 °F 83% 29.86 in 6.2 mi ESE 16.1 mph - N/A   Overcast
7:54 AM 77.0 °F 71.6 °F 83% 29.89 in 6.2 mi East 15.0 mph - N/A   Overcast
8:00 AM 77.0 °F 71.6 °F 83% 29.89 in 6.2 mi East 13.8 mph 25.3 mph N/A   Overcast
8:23 AM 78.8 °F 71.6 °F 78% 29.89 in 6.2 mi East 12.7 mph 24.2 mph N/A   Scattered Clouds
9:00 AM 77 °F 72 °F 82% 29.88 in - East 11.5 mph - -   Overcast
9:00 AM 77.0 °F 73.4 °F 89% 29.92 in 6.2 mi East 11.5 mph - N/A Rain Light Rain Showers
9:14 AM 77.0 °F 73.4 °F 89% 29.92 in 6.2 mi East 15.0 mph - N/A   Overcast
9:15 AM 77.0 °F 71.6 °F 83% 29.92 in 6.2 mi East 15.0 mph - N/A   Overcast
9:30 AM 77.0 °F 71.6 °F 83% 29.92 in 6.2 mi East 16.1 mph - N/A   Overcast
9:50 AM 78.8 °F 73.4 °F 83% 29.92 in 6.2 mi East 15.0 mph - N/A   Overcast
10:00 AM 78 °F 72 °F 77% 29.88 in - ESE 16.1 mph - -  
10:00 AM 77.0 °F 71.6 °F 83% 29.92 in 6.2 mi ESE 16.1 mph - N/A   Overcast
10:18 AM 77.0 °F 71.6 °F 83% 29.92 in - ESE 17.3 mph - N/A   Overcast
10:41 AM 78.8 °F 71.6 °F 78% 29.92 in 6.2 mi ESE 17.3 mph 28.8 mph N/A   Overcast
11:00 AM 78.8 °F 71.6 °F 78% 29.89 in 6.2 mi East 17.3 mph - N/A   Overcast
12:00 PM 78 °F 72 °F 76% 29.85 in - ESE 18.4 mph - -   Overcast
12:00 PM 78.8 °F 71.6 °F 78% 29.89 in 6.2 mi ESE 18.4 mph - N/A   Overcast
12:32 PM 77.0 °F 71.6 °F 83% 29.86 in 6.2 mi ESE 17.3 mph 28.8 mph N/A   Overcast
1:00 PM 78 °F 71 °F 73% 29.83 in - ESE 16.1 mph - -  
1:00 PM 77.0 °F 71.6 °F 83% 29.86 in 6.2 mi ESE 16.1 mph - N/A   Mostly Cloudy
2:00 PM 78.8 °F 71.6 °F 78% 29.83 in 6.2 mi ESE 15.0 mph 27.6 mph N/A   Mostly Cloudy
3:00 PM 78 °F 70 °F 71% 29.81 in - East 15.0 mph - -  
3:00 PM 78.8 °F 69.8 °F 74% 29.83 in 6.2 mi East 15.0 mph - N/A   Unknown
4:00 PM 78 °F 71 °F 72% 29.81 in - East 12.7 mph - -  
4:00 PM 78.8 °F 71.6 °F 78% 29.83 in 6.2 mi East 12.7 mph 24.2 mph N/A   Scattered Clouds
5:00 PM 77.0 °F 69.8 °F 78% 29.86 in 6.2 mi East 12.7 mph - N/A   Scattered Clouds
6:00 PM 77 °F 71 °F 76% 29.85 in - ESE 13.8 mph - -  
6:00 PM 77.0 °F 71.6 °F 83% 29.89 in 6.2 mi ESE 13.8 mph - N/A   Unknown
7:00 PM 77 °F 71 °F 76% 29.86 in - ESE 13.8 mph - -  
7:00 PM 77.0 °F 71.6 °F 83% 29.89 in 6.2 mi ESE 13.8 mph - N/A   Scattered Clouds
8:00 PM 77.0 °F 71.6 °F 83% 29.92 in 6.2 mi East 12.7 mph - N/A   Scattered Clouds
9:00 PM 77 °F 71 °F 78% 29.91 in - ESE 13.8 mph - -  
9:00 PM 77.0 °F 71.6 °F 83% 29.95 in 6.2 mi ESE 13.8 mph - N/A   Scattered Clouds
9:58 PM 77.0 °F 71.6 °F 83% 29.95 in 6.2 mi East 13.8 mph - N/A   Mostly Cloudy
10:00 PM 77 °F 72 °F 80% 29.91 in - East 13.8 mph - -  
10:00 PM 77.0 °F 71.6 °F 83% 29.95 in 6.2 mi East 13.8 mph - N/A   Mostly Cloudy
11:00 PM 77.0 °F 73.4 °F 89% 29.95 in 6.2 mi ESE 15.0 mph - N/A   Overcast